FW2134 Weather Reports


Display with metric or nautical units.
time (UTC)temp
F
wind
direction
speed
MPH
gust
MPH
rain 1hr
in
rain 24hr
in
rain mn
in
humidity
%
barometer
mb
20260505124505 65 126 7.0 0.0 0.00 0.00 0.00 62 1010.1
20260505123110 64 119 6.0 0.0 0.00 0.00 0.00 61 1010.0
20260505121557 64 135 5.0 0.0 0.00 0.00 0.00 62 1010.0
20260505120108 63 165 5.0 0.0 0.00 0.00 0.00 64 1010.0
20260505114550 62 110 4.0 0.0 0.00 0.00 0.00 66 1010.2
20260505113051 61 155 4.0 0.0 0.00 0.00 0.00 69 1010.2
20260505111542 60 140 1.0 0.0 0.00 0.00 0.00 70 1010.1
20260505101526 57 174 2.0 0.0 0.00 0.00 0.00 76 1009.8
20260505100030 56 174 1.0 0.0 0.00 0.00 0.00 76 1009.2
20260505094526 56 141 1.0 0.0 0.00 0.00 0.00 76 1009.1
20260505093026 56 127 2.0 0.0 0.00 0.00 0.00 77 1008.9
20260505091524 56 126 1.0 0.0 0.00 0.00 0.00 77 1009.1
20260505090024 56 126 2.0 0.0 0.00 0.00 0.00 77 1009.1
20260505084526 55 82 2.0 0.0 0.00 0.00 0.00 77 1009.0
20260505083023 55 123 3.0 0.0 0.00 0.00 0.00 78 1009.2
20260505081531 54 131 0.0 0.0 0.00 0.00 0.00 77 1009.2
20260505080022 54 114 0.0 0.0 0.00 0.00 0.00 77 1009.2
20260505074521 54 114 0.0 0.0 0.00 0.00 0.00 75 1009.1
20260505073024 54 126 0.0 0.0 0.00 0.00 0.00 74 1009.0
20260505071539 55 127 0.0 0.0 0.00 0.00 0.00 71 1009.0
20260505070017 55 127 0.0 0.0 0.00 0.00 0.00 70 1009.1
20260505064521 56 127 0.0 0.0 0.00 0.00 0.00 68 1009.0
20260505063015 57 127 0.0 0.0 0.00 0.00 0.00 67 1009.2
20260505061512 58 127 1.0 0.0 0.00 0.00 0.00 66 1009.1
20260505060007 58 113 2.0 0.0 0.00 0.00 0.00 65 1009.1
20260505054504 58 134 2.0 0.0 0.00 0.00 0.00 65 1009.2
20260505053106 59 116 2.0 0.0 0.00 0.00 0.00 65 1009.3
20260505051555 59 97 2.0 0.0 0.00 0.00 0.00 64 1009.3
20260505041551 57 104 1.0 0.0 0.00 0.00 0.00 65 1009.7
20260505040045 57 75 0.0 0.0 0.00 0.00 0.00 65 1009.7
20260505034544 58 79 0.0 0.0 0.00 0.00 0.00 64 1009.8
20260505033047 58 76 1.0 0.0 0.00 0.00 0.00 62 1009.9
20260505031544 59 104 1.0 0.0 0.00 0.00 0.00 61 1010.0
20260505030045 59 96 1.0 0.0 0.00 0.00 0.00 59 1009.9
20260505024546 59 110 1.0 0.0 0.00 0.00 0.00 58 1010.0
20260505023050 59 73 1.0 0.0 0.00 0.00 0.00 57 1010.0
20260505021544 60 59 2.0 0.0 0.00 0.00 0.00 57 1010.2
20260505020044 61 65 2.0 0.0 0.00 0.00 0.00 56 1009.9
20260505014544 61 51 3.0 0.0 0.00 0.00 0.00 55 1010.0
20260505013043 61 52 3.0 0.0 0.00 0.00 0.00 54 1009.7
20260505011550 62 58 3.0 0.0 0.00 0.00 0.00 53 1009.5
20260505010047 63 42 3.0 0.0 0.00 0.00 0.00 50 1009.3
20260505004542 65 72 1.0 0.0 0.00 0.00 0.00 42 1009.1
20260505003041 66 116 2.0 0.0 0.00 0.00 0.00 38 1008.8
20260505001541 67 144 3.0 0.0 0.00 0.00 0.00 36 1008.6
20260505000041 68 114 5.0 0.0 0.00 0.00 0.00 35 1008.5
20260504234542 68 106 3.0 0.0 0.00 0.00 0.00 34 1008.2
20260504233043 69 137 6.0 0.0 0.00 0.00 0.00 33 1008.2
20260504231541 71 131 5.0 0.0 0.00 0.00 0.00 31 1008.0
20260504230039 71 141 5.0 0.0 0.00 0.00 0.00 29 1007.9
20260504224538 72 150 7.0 0.0 0.00 0.00 0.00 27 1007.9
20260504223038 73 185 7.0 0.0 0.00 0.00 0.00 28 1008.0
20260504221538 73 167 5.0 0.0 0.00 0.00 0.00 28 1008.2
20260504220043 74 133 5.0 0.0 0.00 0.00 0.00 27 1008.2
20260504214547 74 134 6.0 0.0 0.00 0.00 0.00 27 1008.3
20260504213047 74 152 7.0 0.0 0.00 0.00 0.00 28 1008.4
20260504211537 74 199 7.0 0.0 0.00 0.00 0.00 27 1008.3
20260504210036 73 76 7.0 0.0 0.00 0.00 0.00 28 1008.3
20260504204535 73 141 6.0 0.0 0.00 0.00 0.00 28 1008.4
20260504203035 75 95 7.0 0.0 0.00 0.00 0.00 28 1008.3
20260504201534 74 137 8.0 0.0 0.00 0.00 0.00 27 1008.5
20260504200041 75 123 7.0 0.0 0.00 0.00 0.00 30 1008.6
20260504194538 74 152 6.0 0.0 0.00 0.00 0.00 28 1008.7
20260504193032 74 154 7.0 0.0 0.00 0.00 0.00 28 1008.8
20260504191548 74 124 7.0 0.0 0.00 0.00 0.00 27 1009.0
20260504190032 74 127 8.0 0.0 0.00 0.00 0.00 28 1009.3
20260504184535 74 128 8.0 0.0 0.00 0.00 0.00 30 1009.5
20260504183039 74 116 6.0 0.0 0.00 0.00 0.00 27 1009.6
20260504181528 73 140 6.0 0.0 0.00 0.00 0.00 27 1009.8
20260504180026 72 165 6.0 0.0 0.00 0.00 0.00 33 1010.2
20260504174525 72 89 8.0 0.0 0.00 0.00 0.00 30 1010.3
20260504173027 72 198 9.0 0.0 0.00 0.00 0.00 30 1010.4
20260504171523 71 185 6.0 0.0 0.00 0.00 0.00 32 1010.5